Tracking 17636 objects as of 30-April-2016
HD Live streaming from Space Station
objects crossing your sky now

NAVSTAR 30 (USA 88)

Track NAVSTAR 30 (USA 88) now!
NAVSTAR 30 (USA 88) is classified as:


NORAD ID: 22446
Int'l Code: 1993-007A
Perigee: 21,296.0 km
Apogee: 21,423.7 km
Inclination: 55.5 °
Period: 766.0 minutes
Semi major axis: 27730 km
RCS: 2.5118 m2 (large)
Launch date: February 3, 1993
Source: United States (US)
Launch site: AIR FORCE EASTERN TEST RANGE (AFETR)
PRN:
Your satellite tracking list
Your tracking list is empty





NASA's NSSDC Master Catalog

Two Line Element Set (TLE):
1 22446U 93007A   16121.57750859 -.00000072  00000-0  00000+0 0  9993
2 22446  55.4517  14.2296 0023013 327.9206 160.0395  1.88091785164461
Source of the keplerian elements: AFSPC

N2YO: 336